Showing default

OPS 7613 (P/L 4), 4237

Orbit data source: Space-Track

OPS 7613 (P/L 4), 4237 is an American payload satellite in LEO that was launched on Tue, 30 Sep 1969 UTC via a THORAD SLV-2G AGENA D launch vehicle from the Air Force Western Test Range (AFWTR). Payload-class satellites include a variety of spacecraft equipped with specific instruments for various scientific and technological missions. These include communications satellites like Starlink; space stations such as the ISS; scientific satellites like the Hubble; Earth observation satellites from companies like Planet Labs, Umbra, and HawkEye 360; GPS; miniature CubeSats for education and research; and military/defense satellites.

Loading next visibility...
Identifier
4237, 1969-082E
Orbit
LEO
Country
Flag of USUS
Related business
Manufacturer
NRL
Mission
Spacecraft
Bus & Motor
NRL MULTI, Unknown motor
Mass
101 kg wet, 101 kg dry
Launch date (UTC)
1969-09-30 (57 years ago)
Launch vehicle
THORAD SLV-2G AGENA D
Launch site
Air Force Western Test Range (AFWTR)
Object type
Payload
Rocket body
Debris
Shape & HBR
Unknown shape, 0.7 m
Radar Cross Section
Medium (>0.1 m² and <1 m²)

Expand to show TLE details & history
Last TLE update: 12 hours ago

TLE from 12 hours ago
0 OPS 7613 (P/L 4)
1 04237U 69082E   26093.87493529  .00000061  00000-0  82962-4 0  9996
2 04237  70.0133 262.6374 0022607 231.4516 243.0807 13.95984238875939
Epoch: 2026-04-03T20:59Z
TLE epoch observation values (Epoch: 2026-04-03T20:59:54.409Z)
Latitude
59.03631°
Longitude
-101.6279°
Altitude
924.611 km
Speed
7.392 km/s
True Right ascension
03h 02m 12s
True Declination
58° 53' 16"
Sunlit
Object was in daylight at epoch
Visualization orbit readout
Latitude
Unknown
Longitude
Unknown
Altitude
Unknown
Speed
Unknown
Apparent Right ascension
Unknown
Apparent Declination
Unknown
Sunlit
N/A
Visualization observer readout
Local Sidereal Time
14:25:29
Azimuth
Unknown
Elevation
Unknown
Doppler factor
Unknown
Orbital elements
Apogee altitude
922.243 km
Perigee altitude
889.309 km
Semi-major axis
7,283.913 km
Eccentricity
0.00226
Inclination
70.0133°
RAAN
262.6374°
Arg. of periapsis
231.4516°
True anomaly
242.85001°
Mean anomaly
243.0807°
Eccentric anomaly
242.96532°
Mean motion
3.49137 °/min
Orbital period
103.11 mins
BSTAR
0.000082962
Loading maneuver chart data...
Computing Atmospheric mass density...

Documentation

Showing up to 5 results
|